Location: Killarney
(45.9719°N, 81.5115°W)
Time: 07:02:20
(UTC-04:00)

ISS - Pass Details

Date: 21 April 2025
Orbit: 416 x 419 km, 51.6° (Epoch: 14 May)

Event Time Altitude Azimuth Distance (km) Brightness Sun altitude
Exits shadow 05:26:35 13° 208° (SSW) 1,326 -1.7 -10.7°
Maximum altitude 05:29:16 37° 143° (SE) 665 -2.7 -10.3°
Drops below altitude 10° 05:32:24 10° 74° (ENE) 1,496 0.5 -9.8°
Sets 05:34:35 0° 66° (ENE) 2,364 2.4 -9.5°
